Le nostre stazioni meteo in Italia

Pubblicità
Il mio iltempo24.it
Besancon, Francia (7288): Temperatura & dewpoint: 02.04.2020 00:00:00 - 08.04.2020 00:00:00 (CEST)Besancon, Francia (7288): Temperatura 5cm: 02.04.2020 00:00:00 - 08.04.2020 00:00:00 (CEST)Besancon, Francia (7288): Temperatura -20cm & Temperatura -100cm: 02.04.2020 00:00:00 - 08.04.2020 00:00:00 (CEST)Besancon, Francia (7288): velocità del vento & gusts: 02.04.2020 00:00:00 - 08.04.2020 00:00:00 (CEST)Besancon, Francia (7288): direzione del vento: 02.04.2020 00:00:00 - 08.04.2020 00:00:00 (CEST)Besancon, Francia (7288): reduced air pressure: 02.04.2020 00:00:00 - 08.04.2020 00:00:00 (CEST)Besancon, Francia (7288): ore di luce: 02.04.2020 00:00:00 - 08.04.2020 00:00:00 (CEST)Besancon, Francia (7288): precipitazioni: 02.04.2020 00:00:00 - 08.04.2020 00:00:00 (CEST)
Data & Tempo tt [°C] td [°C] tt 5cm [°C] tt -20cm [°C] tt -100cm [°C] ff [km/h] ff [kn] fx [km/h] fx [kn] dd ppp [hPa] sd [min] rr [mm]
08.04.2020 00:00:00 - - - - - - - - - - - - -
07.04.2020 23:00:00 12,6 3,8 5,1 11,6 9,3 0 0 4 2 N 1025,9 0 0,0
07.04.2020 22:00:00 15,1 2,9 6,8 11,6 9,3 0 0 6 3 N 1025,3 0 0,0
07.04.2020 21:00:00 16,4 2,8 8,0 11,5 9,3 0 0 14 8 N 1024,6 0 0,0
07.04.2020 20:00:00 19,4 3,1 14,7 11,4 9,3 9 5 28 15 NNE 1023,7 34 0,0
07.04.2020 19:00:00 21,6 3,3 22,1 11,2 9,3 11 6 30 16 NNE 1023,3 60 0,0
07.04.2020 18:00:00 22,8 3,8 27,5 11,0 9,2 8 4 29 16 NE 1023,1 60 0,0
07.04.2020 17:00:00 22,9 2,9 30,3 10,8 9,3 11 6 31 17 NE 1023,4 60 0,0
07.04.2020 16:00:00 23,1 3,1 32,3 10,5 9,2 8 4 35 19 NE 1024,0 60 0,0
07.04.2020 15:00:00 22,5 3,6 32,8 10,4 9,3 13 7 29 16 NNE 1024,6 60 0,0
07.04.2020 14:00:00 22,2 3,8 34,4 10,2 9,2 8 4 23 13 NE 1025,5 60 0,0
07.04.2020 13:00:00 20,4 3,6 29,8 10,2 9,2 4 2 15 8 SE 1026,5 60 0,0
07.04.2020 12:00:00 17,8 3,6 28,8 10,2 9,3 9 5 15 8 NNO 1027,6 60 0,0
07.04.2020 11:00:00 17,5 3,4 24,7 10,2 9,2 2 1 10 5 SO 1028,0 60 0,0
07.04.2020 10:00:00 13,4 2,3 13,8 10,3 9,2 0 0 6 4 N 1028,8 60 0,0
07.04.2020 09:00:00 7,7 1,5 0,8 10,4 9,2 0 0 0 0 N 1029,4 60 0,0
07.04.2020 08:00:00 4,4 0,7 -0,8 10,5 9,2 0 0 0 0 N 1029,6 0 0,0
07.04.2020 07:00:00 4,6 0,4 -0,8 10,7 9,2 0 0 3 2 N 1029,4 0 0,0
07.04.2020 06:00:00 5,0 0,7 -0,6 10,8 9,2 0 0 6 3 N 1029,1 0 0,0
07.04.2020 05:00:00 4,9 1,2 -0,1 10,8 9,2 0 0 4 2 N 1028,9 0 0,0
07.04.2020 04:00:00 5,5 1,0 0,0 10,9 9,2 0 0 6 3 N 1028,5 0 0,0
07.04.2020 03:00:00 6,8 1,5 0,8 11,0 9,2 0 0 7 4 N 1028,2 0 0,0
07.04.2020 02:00:00 7,6 1,4 1,0 11,1 9,2 0 0 5 3 N 1027,9 0 0,0
07.04.2020 01:00:00 7,9 1,5 1,0 11,2 9,2 4 2 8 4 NE 1027,4 0 0,0
07.04.2020 00:00:00 9,0 1,2 1,4 11,3 9,2 3 2 7 4 NE 1026,9 0 0,0
06.04.2020 23:00:00 9,7 1,3 2,5 11,3 9,1 3 2 7 4 NNE 1026,6 0 0,0
06.04.2020 22:00:00 11,5 2,0 4,0 11,2 9,1 0 0 6 3 N 1026,0 0 0,0
06.04.2020 21:00:00 14,6 1,8 6,3 11,1 9,1 0 0 5 3 N 1024,9 0 0,0
06.04.2020 20:00:00 19,0 0,1 12,5 11,0 9,1 2 1 13 7 NO 1023,4 37 0,0
06.04.2020 19:00:00 20,4 -0,3 23,0 10,9 9,1 5 3 17 9 NO 1022,8 60 0,0
06.04.2020 18:00:00 21,0 -0,4 25,2 10,6 9,1 9 5 23 12 O 1022,4 60 0,0
06.04.2020 17:00:00 21,4 -1,9 25,7 10,4 9,1 9 5 24 13 SO 1022,4 60 0,0
06.04.2020 16:00:00 21,2 -0,2 28,0 10,2 9,1 8 5 29 16 OSO 1022,6 60 0,0
06.04.2020 15:00:00 20,6 -0,1 27,4 10,0 9,1 9 5 31 17 OSO 1022,8 60 0,0
06.04.2020 14:00:00 19,9 1,3 28,0 9,9 9,1 13 7 27 15 SO 1022,9 60 0,0
06.04.2020 13:00:00 18,8 2,2 25,5 9,8 9,1 13 7 31 17 SO 1023,1 60 0,0
06.04.2020 12:00:00 17,8 2,5 23,3 9,8 9,1 13 7 36 19 SO 1023,4 60 0,0
06.04.2020 11:00:00 16,6 1,8 20,4 9,8 9,1 10 5 30 16 SSO 1023,5 60 0,0
06.04.2020 10:00:00 15,3 1,4 15,8 9,9 9,1 11 6 31 17 SSO 1023,1 60 0,0
06.04.2020 09:00:00 13,1 1,1 9,5 10,0 9,1 7 4 19 11 SSO 1022,9 58 0,0
06.04.2020 08:00:00 11,4 0,8 6,4 10,1 9,0 5 3 21 11 S 1022,5 0 0,0
06.04.2020 07:00:00 10,0 0,8 0,9 10,2 9,1 4 2 16 9 SSO 1022,2 0 0,0
06.04.2020 06:00:00 6,1 1,4 0,5 10,3 9,1 2 1 10 5 SSO 1022,3 0 0,0
06.04.2020 05:00:00 7,9 1,3 1,2 10,3 9,0 0 0 5 3 N 1021,7 0 0,0
06.04.2020 04:00:00 9,4 1,1 1,9 10,4 9,1 2 1 7 4 S 1021,4 0 0,0
06.04.2020 03:00:00 10,6 1,4 3,9 10,5 9,0 0 0 14 7 N 1020,9 0 0,0
06.04.2020 02:00:00 9,1 2,0 1,9 10,6 9,1 5 3 12 7 SSO 1020,6 0 0,0
06.04.2020 01:00:00 8,0 2,4 2,0 10,6 9,0 0 0 4 2 N 1020,4 0 0,0
06.04.2020 00:00:00 9,4 2,5 2,9 10,6 9,0 2 1 5 3 NNE 1019,7 0 0,0
05.04.2020 23:00:00 11,3 2,8 4,4 10,6 9,0 0 0 0 0 N 1019,1 0 0,0
05.04.2020 22:00:00 14,1 2,9 6,6 10,6 9,0 0 0 7 4 N 1018,4 0 0,0
05.04.2020 21:00:00 15,2 2,0 6,7 10,4 9,0 0 0 4 2 N 1017,9 0 0,0
05.04.2020 20:00:00 18,0 2,7 12,4 10,3 9,0 2 1 15 8 NNE 1017,0 33 0,0
05.04.2020 19:00:00 20,1 3,3 21,4 10,1 9,0 9 5 16 8 NNE 1016,5 60 0,0
05.04.2020 18:00:00 21,4 4,0 27,7 9,8 9,0 4 2 20 11 NNE 1016,5 60 0,0
05.04.2020 17:00:00 21,4 3,6 28,2 9,6 9,0 4 2 18 10 NO 1017,0 60 0,0
05.04.2020 16:00:00 21,1 3,8 32,4 9,3 9,0 5 3 16 8 NE 1017,7 60 0,0
05.04.2020 15:00:00 20,0 4,9 32,6 9,2 9,0 6 3 16 9 NO 1018,6 60 0,0
05.04.2020 14:00:00 19,8 3,0 31,9 9,0 9,0 2 1 11 6 OSO 1019,3 60 0,0
05.04.2020 13:00:00 18,3 2,2 29,7 8,9 9,0 6 3 13 7 N 1020,2 60 0,0
05.04.2020 12:00:00 17,5 1,9 28,0 8,9 9,0 2 1 10 5 N 1021,0 60 0,0
05.04.2020 11:00:00 15,7 4,1 22,0 8,9 9,0 2 1 7 4 ESE 1021,4 60 0,0
05.04.2020 10:00:00 12,4 2,0 14,1 9,0 9,0 3 2 8 4 E 1022,1 60 0,0
05.04.2020 09:00:00 7,6 1,6 0,1 9,1 9,0 0 0 8 4 N 1022,8 56 0,0
05.04.2020 08:00:00 4,0 0,7 -1,4 9,2 9,0 0 0 6 3 N 1023,0 0 0,0
05.04.2020 07:00:00 4,4 0,5 -1,6 9,3 9,0 0 0 6 3 N 1022,4 0 0,0
05.04.2020 06:00:00 5,0 0,6 -1,2 9,4 9,0 0 0 0 0 N 1021,9 0 0,0
05.04.2020 05:00:00 5,6 0,6 -0,8 9,5 9,0 0 0 0 0 N 1021,6 0 0,0
05.04.2020 04:00:00 6,1 1,0 -0,3 9,5 9,0 0 0 4 2 N 1021,5 0 0,0
05.04.2020 03:00:00 6,8 0,9 0,3 9,6 9,0 0 0 5 3 N 1021,4 0 0,0
05.04.2020 02:00:00 7,9 1,1 0,9 9,6 9,0 0 0 7 4 N 1021,4 0 0,0
05.04.2020 01:00:00 8,9 0,8 2,4 9,7 9,0 0 0 11 6 N 1021,0 0 0,0
05.04.2020 00:00:00 9,7 0,8 3,3 9,7 9,0 2 1 11 6 ENE 1020,8 0 0,0
04.04.2020 23:00:00 9,9 0,8 3,7 9,7 9,0 0 0 13 7 N 1020,8 0 0,0
04.04.2020 22:00:00 10,8 1,1 3,9 9,6 9,0 2 1 14 8 ENE 1020,7 0 0,0
04.04.2020 21:00:00 11,5 2,0 4,3 9,5 9,0 3 2 9 5 NE 1020,3 0 0,0
04.04.2020 20:00:00 14,4 2,6 10,4 9,4 9,0 4 2 19 11 NE 1019,6 33 0,0
04.04.2020 19:00:00 16,5 3,5 18,3 9,2 9,0 8 5 21 11 NNE 1019,2 60 0,0
04.04.2020 18:00:00 17,6 2,7 24,7 9,0 9,0 4 2 18 10 NE 1018,9 60 0,0
04.04.2020 17:00:00 17,3 3,6 25,6 8,8 9,0 8 4 21 11 N 1019,1 60 0,0
04.04.2020 16:00:00 16,9 3,6 28,3 8,6 8,9 12 7 24 13 N 1019,3 60 0,0
04.04.2020 15:00:00 16,2 3,3 29,8 8,4 9,0 10 5 23 12 NNE 1019,8 60 0,0
04.04.2020 14:00:00 15,3 2,8 28,5 8,3 9,0 6 3 23 13 N 1020,3 60 0,0
04.04.2020 13:00:00 14,1 1,4 26,5 8,2 8,9 10 5 22 12 NNE 1020,9 60 0,0
04.04.2020 12:00:00 13,0 2,2 21,5 8,2 9,0 8 5 21 12 NNE 1021,6 53 0,0
04.04.2020 11:00:00 12,0 1,9 19,5 8,3 8,9 6 4 19 10 NE 1021,8 60 0,0
04.04.2020 10:00:00 10,0 1,4 10,6 8,4 9,0 6 3 21 11 ENE 1022,1 60 0,0
04.04.2020 09:00:00 5,2 0,4 -1,9 8,5 8,9 2 1 9 5 NE 1022,6 54 0,0
04.04.2020 08:00:00 2,1 -1,0 -3,9 8,6 9,0 0 0 3 2 N 1022,7 0 0,0
04.04.2020 07:00:00 1,5 -1,2 -4,1 8,7 9,0 0 0 3 2 N 1022,2 0 0,0
04.04.2020 06:00:00 1,2 -1,0 -4,3 8,8 9,0 0 0 3 2 N 1022,0 0 0,0
04.04.2020 05:00:00 1,6 -0,5 -3,7 8,9 8,9 0 0 0 0 N 1021,8 0 0,0
04.04.2020 04:00:00 1,7 -0,9 -3,5 9,0 8,9 0 0 0 0 N 1021,7 0 0,0
04.04.2020 03:00:00 2,0 -0,6 -3,0 9,1 8,9 0 0 0 0 N 1021,8 0 0,0
04.04.2020 02:00:00 2,7 -0,2 -2,6 9,1 8,9 0 0 0 0 N 1021,7 0 0,0
04.04.2020 01:00:00 4,0 -0,2 -1,7 9,2 9,0 0 0 4 2 N 1021,6 0 0,0
04.04.2020 00:00:00 4,9 -0,1 -1,3 9,2 9,0 0 0 3 2 N 1021,3 0 0,0
03.04.2020 23:00:00 5,6 -0,5 -0,6 9,2 9,0 0 0 4 2 N 1021,2 0 0,0
03.04.2020 22:00:00 7,0 -0,5 0,4 9,2 8,9 0 0 8 4 N 1020,6 0 0,0
03.04.2020 21:00:00 8,8 -0,3 2,8 9,1 8,9 6 3 13 7 NNE 1019,8 0 0,0
03.04.2020 20:00:00 10,9 -1,2 7,6 8,9 8,9 11 6 24 13 NNE 1019,0 46 0,0
03.04.2020 19:00:00 12,5 0,6 15,1 8,8 9,0 8 5 24 13 N 1018,2 58 0,0
03.04.2020 18:00:00 13,2 0,6 15,5 8,6 8,9 8 5 22 12 NNE 1017,7 36 0,0
03.04.2020 17:00:00 12,7 0,1 16,8 8,4 8,9 9 5 26 14 N 1017,8 46 0,0
03.04.2020 16:00:00 12,6 0,3 18,1 8,2 8,9 12 6 26 14 NNE 1017,8 44 0,0
03.04.2020 15:00:00 13,2 0,2 17,9 8,1 8,9 6 3 25 14 NE 1017,6 50 0,0
03.04.2020 14:00:00 11,4 1,3 23,7 8,0 8,9 10 6 23 12 NO 1018,3 60 0,0
03.04.2020 13:00:00 10,7 1,8 23,3 7,9 8,9 10 5 23 13 NNE 1018,8 60 0,0
03.04.2020 12:00:00 9,9 0,2 20,8 7,9 8,9 3 2 11 6 NE 1018,9 60 0,0
03.04.2020 11:00:00 8,5 0,2 15,4 8,0 8,9 4 2 9 5 NNE 1019,1 60 0,0
03.04.2020 10:00:00 6,3 -0,5 7,1 8,1 8,9 2 1 5 3 SE 1018,8 60 0,0
03.04.2020 09:00:00 1,7 -1,6 -3,6 8,2 8,9 0 0 0 0 N 1019,2 52 0,0
03.04.2020 08:00:00 -1,0 -2,7 -5,5 8,4 8,9 0 0 0 0 N 1019,2 0 0,0
03.04.2020 07:00:00 -1,0 -2,6 -5,6 8,5 8,9 0 0 0 0 N 1018,5 0 0,0
03.04.2020 06:00:00 -0,7 -2,6 -5,1 8,6 9,0 0 0 0 0 N 1018,1 0 0,0
03.04.2020 05:00:00 0,1 -2,3 -4,7 8,7 8,9 0 0 0 0 N 1017,5 0 0,0
03.04.2020 04:00:00 1,3 -2,3 -3,9 8,7 8,9 0 0 3 2 N 1017,2 0 0,0
03.04.2020 03:00:00 2,7 -2,2 -2,9 8,8 8,9 0 0 6 4 N 1017,1 0 0,0
03.04.2020 02:00:00 3,9 -1,9 -1,1 8,9 9,0 4 2 13 7 NNE 1017,1 0 0,0
03.04.2020 01:00:00 4,9 -2,2 -1,0 8,9 8,9 4 2 10 6 N 1016,5 0 0,0
03.04.2020 00:00:00 5,5 -2,4 -0,9 8,9 8,9 2 1 16 9 NNO 1015,9 0 0,0
02.04.2020 23:00:00 7,7 -2,4 1,7 8,9 8,9 9 5 18 10 N 1015,0 0 0,0
02.04.2020 22:00:00 9,1 -2,8 4,7 8,9 8,9 8 4 18 10 N 1014,2 0 0,0
02.04.2020 21:00:00 9,9 -4,1 1,3 8,8 9,0 8 4 15 8 NNO 1013,4 0 0,0
02.04.2020 20:00:00 12,1 -5,0 7,2 8,7 8,9 3 1 9 5 OSO 1012,5 31 0,0
02.04.2020 19:00:00 13,8 -5,4 16,9 8,5 9,0 3 2 12 7 NO 1012,2 60 0,0
02.04.2020 18:00:00 14,1 -3,7 19,8 8,3 8,9 6 3 17 9 ONO 1012,1 60 0,0
02.04.2020 17:00:00 14,0 -4,7 20,5 8,1 8,9 6 4 21 11 O 1012,3 60 0,0
02.04.2020 16:00:00 13,6 -4,6 22,3 7,9 8,9 7 4 24 13 ONO 1012,5 60 0,0
02.04.2020 15:00:00 13,2 -3,6 22,9 7,7 8,9 9 5 23 12 O 1013,0 60 0,0
02.04.2020 14:00:00 12,1 -2,9 23,4 7,6 8,9 10 5 21 12 NO 1013,7 60 0,0
02.04.2020 13:00:00 11,8 -1,0 21,9 7,5 8,9 7 4 18 10 O 1014,0 60 0,0
02.04.2020 12:00:00 10,4 -0,7 18,0 7,5 9,0 8 4 16 9 O 1014,5 60 0,0
02.04.2020 11:00:00 8,7 0,6 15,5 7,6 8,9 6 3 17 9 OSO 1014,9 60 0,0
02.04.2020 10:00:00 6,5 -0,9 7,8 7,7 9,0 3 2 8 4 SSO 1015,1 60 0,0
02.04.2020 09:00:00 1,0 -3,1 -4,4 7,8 8,9 0 0 0 0 N 1015,9 50 0,0
02.04.2020 08:00:00 -1,4 -4,2 -6,0 7,9 9,0 0 0 0 0 N 1016,1 0 0,0
02.04.2020 07:00:00 -1,2 -3,9 -5,9 8,0 9,0 0 0 5 3 N 1015,8 0 0,0
02.04.2020 06:00:00 0,0 -3,2 -5,2 8,1 9,0 0 0 0 0 N 1015,5 0 0,0
02.04.2020 05:00:00 0,4 -3,3 -5,1 8,2 9,0 3 1 6 3 NNE 1015,5 0 0,0
02.04.2020 04:00:00 0,5 -3,8 -4,9 8,3 9,0 0 0 3 2 N 1015,4 0 0,0
02.04.2020 03:00:00 1,0 -3,9 -4,1 8,4 9,0 3 2 4 2 NNE 1015,6 0 0,0
02.04.2020 02:00:00 1,6 -2,7 -3,8 8,4 9,0 2 1 4 2 NNE 1015,8 0 0,0
02.04.2020 01:00:00 2,3 -2,8 -3,3 8,5 9,0 0 0 0 0 N 1016,0 0 0,0
02.04.2020 00:00:00 4,4 -3,9 -2,3 8,5 9,0 0 0 3 2 N 1015,9 0 0,0

tt = Temperatura
td = dewpoint
tt 5cm = Temperatura 5cm
tt -20cm = Temperatura -20cm
tt -100cm = Temperatura -100cm
ff = velocità del vento
fx = gusts
dd = direzione del vento
ppp = reduced air pressure
sd = ore di luce
rr = precipitazioni

Stazioni seguenti

WeatherPro
AMSI
MeteoEarth